Year,Month,Day,Hour,Minute,Value (Times are PST for temperature in C)
2020,04,25,00,00,10.30
2020,04,25,00,01,10.30
2020,04,25,00,02,10.30
2020,04,25,00,03,10.30
2020,04,25,00,04,10.30
2020,04,25,00,05,10.30
2020,04,25,00,06,10.30
2020,04,25,00,07,10.30
2020,04,25,00,08,10.30
2020,04,25,00,09,10.40
2020,04,25,00,10,10.40
2020,04,25,00,11,10.40
2020,04,25,00,12,10.40
2020,04,25,00,13,10.40
2020,04,25,00,14,10.30
2020,04,25,00,15,10.40
2020,04,25,00,16,10.40
2020,04,25,00,17,10.40
2020,04,25,00,18,10.40
2020,04,25,00,19,10.40
2020,04,25,00,20,10.40
2020,04,25,00,21,10.40
2020,04,25,00,22,10.40
2020,04,25,00,23,10.40
2020,04,25,00,24,10.40
2020,04,25,00,25,10.40
2020,04,25,00,26,10.40
2020,04,25,00,27,10.40
2020,04,25,00,28,10.40
2020,04,25,00,29,10.40
2020,04,25,00,30,10.40
2020,04,25,00,31,10.40
2020,04,25,00,32,10.40
2020,04,25,00,33,10.30
2020,04,25,00,34,10.30
2020,04,25,00,35,10.30
2020,04,25,00,36,10.40
2020,04,25,00,37,10.40
2020,04,25,00,38,10.40
2020,04,25,00,39,10.40
2020,04,25,00,40,10.40
2020,04,25,00,41,10.40
2020,04,25,00,42,10.40
2020,04,25,00,43,10.40
2020,04,25,00,44,10.40
2020,04,25,00,45,10.40
2020,04,25,00,46,10.40
2020,04,25,00,47,10.40
2020,04,25,00,48,10.40
2020,04,25,00,49,10.40
2020,04,25,00,50,10.40
2020,04,25,00,51,10.40
2020,04,25,00,52,10.40
2020,04,25,00,53,10.40
2020,04,25,00,54,10.40
2020,04,25,00,55,10.40
2020,04,25,00,56,10.40
2020,04,25,00,57,10.40
2020,04,25,00,58,10.40
2020,04,25,00,59,10.40
2020,04,25,01,00,10.40
2020,04,25,01,01,10.30
2020,04,25,01,02,10.30
2020,04,25,01,03,10.30
2020,04,25,01,04,10.30
2020,04,25,01,05,10.30
2020,04,25,01,06,10.30
2020,04,25,01,07,10.30
2020,04,25,01,08,10.30
2020,04,25,01,09,10.30
2020,04,25,01,10,10.30
2020,04,25,01,11,10.30
2020,04,25,01,12,10.30
2020,04,25,01,13,10.30
2020,04,25,01,14,10.30
2020,04,25,01,15,10.30
2020,04,25,01,16,10.30
2020,04,25,01,17,10.30
2020,04,25,01,18,10.30
2020,04,25,01,19,10.30
2020,04,25,01,20,10.30
2020,04,25,01,21,10.30
2020,04,25,01,22,10.30
2020,04,25,01,23,10.30
2020,04,25,01,24,10.30
2020,04,25,01,25,10.30
2020,04,25,01,26,10.30
2020,04,25,01,27,10.30
2020,04,25,01,28,10.30
2020,04,25,01,29,10.30
2020,04,25,01,30,10.30
2020,04,25,01,31,10.30
2020,04,25,01,32,10.30
2020,04,25,01,33,10.30
2020,04,25,01,34,10.30
2020,04,25,01,35,10.20
2020,04,25,01,36,10.20
2020,04,25,01,37,10.20
2020,04,25,01,38,10.20
2020,04,25,01,39,10.10
2020,04,25,01,40,10.10
2020,04,25,01,41,10.10
2020,04,25,01,42,10.10
2020,04,25,01,43,10.10
2020,04,25,01,44,10.10
2020,04,25,01,45,10.00
2020,04,25,01,46,10.00
2020,04,25,01,47,10.00
2020,04,25,01,48,9.90
2020,04,25,01,49,9.90
2020,04,25,01,50,9.90
2020,04,25,01,51,9.90
2020,04,25,01,52,9.90
2020,04,25,01,53,9.90
2020,04,25,01,54,9.90
2020,04,25,01,55,9.90
2020,04,25,01,56,9.90
2020,04,25,01,57,9.90
2020,04,25,01,58,9.90
2020,04,25,01,59,9.90
2020,04,25,02,00,9.90
2020,04,25,02,01,9.90
2020,04,25,02,02,9.90
2020,04,25,02,03,10.00
2020,04,25,02,04,10.00
2020,04,25,02,05,9.90
2020,04,25,02,06,9.90
2020,04,25,02,07,9.90
2020,04,25,02,08,9.90
2020,04,25,02,09,9.90
2020,04,25,02,10,9.90
2020,04,25,02,11,9.90
2020,04,25,02,12,9.90
2020,04,25,02,13,9.90
2020,04,25,02,14,9.90
2020,04,25,02,15,9.90
2020,04,25,02,16,9.90
2020,04,25,02,17,9.90
2020,04,25,02,18,9.90
2020,04,25,02,19,9.90
2020,04,25,02,20,9.90
2020,04,25,02,21,9.90
2020,04,25,02,22,9.90
2020,04,25,02,23,9.90
2020,04,25,02,24,9.90
2020,04,25,02,25,9.80
2020,04,25,02,26,9.80
2020,04,25,02,27,9.80
2020,04,25,02,28,9.80
2020,04,25,02,29,9.80
2020,04,25,02,30,9.80
2020,04,25,02,31,9.80
2020,04,25,02,32,9.80
2020,04,25,02,33,9.80
2020,04,25,02,34,9.80
2020,04,25,02,35,9.80
2020,04,25,02,36,9.80
2020,04,25,02,37,9.80
2020,04,25,02,38,9.80
2020,04,25,02,39,9.80
2020,04,25,02,40,9.80
2020,04,25,02,41,9.80
2020,04,25,02,42,9.80
2020,04,25,02,43,9.80
2020,04,25,02,44,9.80
2020,04,25,02,45,9.80
2020,04,25,02,46,9.80
2020,04,25,02,47,9.80
2020,04,25,02,48,9.80
2020,04,25,02,49,9.90
2020,04,25,02,50,9.80
2020,04,25,02,51,9.80
2020,04,25,02,52,9.80
2020,04,25,02,53,9.80
2020,04,25,02,54,9.80
2020,04,25,02,55,9.80
2020,04,25,02,56,9.80
2020,04,25,02,57,9.80
2020,04,25,02,58,9.80
2020,04,25,02,59,9.80
2020,04,25,03,00,9.80
2020,04,25,03,01,9.80
2020,04,25,03,02,9.80
2020,04,25,03,03,9.90
2020,04,25,03,04,9.90
2020,04,25,03,05,9.90
2020,04,25,03,06,9.90
2020,04,25,03,07,9.90
2020,04,25,03,08,9.90
2020,04,25,03,09,9.90
2020,04,25,03,10,9.90
2020,04,25,03,11,9.90
2020,04,25,03,12,9.90
2020,04,25,03,13,9.90
2020,04,25,03,14,9.90
2020,04,25,03,15,9.90
2020,04,25,03,16,9.90
2020,04,25,03,17,9.90
2020,04,25,03,18,9.90
2020,04,25,03,19,9.90
2020,04,25,03,20,9.90
2020,04,25,03,21,9.90
2020,04,25,03,22,9.90
2020,04,25,03,23,9.90
2020,04,25,03,24,9.90
2020,04,25,03,25,9.90
2020,04,25,03,26,9.90
2020,04,25,03,27,9.90
2020,04,25,03,28,9.90
2020,04,25,03,29,9.90
2020,04,25,03,30,9.90
2020,04,25,03,31,9.90
2020,04,25,03,32,9.90
2020,04,25,03,33,9.90
2020,04,25,03,34,9.90
2020,04,25,03,35,10.00
2020,04,25,03,36,10.00
2020,04,25,03,37,9.90
2020,04,25,03,38,10.00
2020,04,25,03,39,10.00
2020,04,25,03,40,10.00
2020,04,25,03,41,10.00
2020,04,25,03,42,10.00
2020,04,25,03,43,10.00
2020,04,25,03,44,10.00
2020,04,25,03,45,10.00
2020,04,25,03,46,10.00
2020,04,25,03,47,10.00
2020,04,25,03,48,10.00
2020,04,25,03,49,9.90
2020,04,25,03,50,10.00
2020,04,25,03,51,10.00
2020,04,25,03,52,10.00
2020,04,25,03,53,10.00
2020,04,25,03,54,10.00
2020,04,25,03,55,10.00
2020,04,25,03,56,10.00
2020,04,25,03,57,10.10
2020,04,25,03,58,10.10
2020,04,25,03,59,10.10
2020,04,25,04,00,10.10
2020,04,25,04,01,10.10
2020,04,25,04,02,10.10
2020,04,25,04,03,10.10
2020,04,25,04,04,10.20
2020,04,25,04,05,10.20
2020,04,25,04,06,10.20
2020,04,25,04,07,10.20
2020,04,25,04,08,10.20
2020,04,25,04,09,10.20
2020,04,25,04,10,10.20
2020,04,25,04,11,10.20
2020,04,25,04,12,10.20
2020,04,25,04,13,10.20
2020,04,25,04,14,10.20
2020,04,25,04,15,10.20
2020,04,25,04,16,10.30
2020,04,25,04,17,10.30
2020,04,25,04,18,10.30
2020,04,25,04,19,10.30
2020,04,25,04,20,10.30
2020,04,25,04,21,10.30
2020,04,25,04,22,10.30
2020,04,25,04,23,10.30
2020,04,25,04,24,10.30
2020,04,25,04,25,10.30
2020,04,25,04,26,10.30
2020,04,25,04,27,10.30
2020,04,25,04,28,10.30
2020,04,25,04,29,10.30
2020,04,25,04,30,10.30
2020,04,25,04,31,10.30
2020,04,25,04,32,10.30
2020,04,25,04,33,10.20
2020,04,25,04,34,10.20
2020,04,25,04,35,10.20
2020,04,25,04,36,10.20
2020,04,25,04,37,10.10
2020,04,25,04,38,10.10
2020,04,25,04,39,10.10
2020,04,25,04,40,10.10
2020,04,25,04,41,10.10
2020,04,25,04,42,10.10
2020,04,25,04,43,10.10
2020,04,25,04,44,10.10
2020,04,25,04,45,10.10
2020,04,25,04,46,10.10
2020,04,25,04,47,10.10
2020,04,25,04,48,10.10
2020,04,25,04,49,10.10
2020,04,25,04,50,10.10
2020,04,25,04,51,10.10
2020,04,25,04,52,10.10
2020,04,25,04,53,10.10
2020,04,25,04,54,10.10
2020,04,25,04,55,10.10
2020,04,25,04,56,10.10
2020,04,25,04,57,10.10
2020,04,25,04,58,10.10
2020,04,25,04,59,10.10
2020,04,25,05,00,10.10
2020,04,25,05,01,10.10
2020,04,25,05,02,10.10
2020,04,25,05,03,10.10
2020,04,25,05,04,10.10
2020,04,25,05,05,10.10
2020,04,25,05,06,10.10
2020,04,25,05,07,10.10
2020,04,25,05,08,10.10
2020,04,25,05,09,10.10
2020,04,25,05,10,10.10
2020,04,25,05,11,10.10
2020,04,25,05,12,10.10
2020,04,25,05,13,10.10
2020,04,25,05,14,10.10
2020,04,25,05,15,10.10
2020,04,25,05,16,10.10
2020,04,25,05,17,10.10
2020,04,25,05,18,10.10
2020,04,25,05,19,10.10
2020,04,25,05,20,10.10
2020,04,25,05,21,10.10
2020,04,25,05,22,10.10
2020,04,25,05,23,10.10
2020,04,25,05,24,10.10
2020,04,25,05,25,10.10
2020,04,25,05,26,10.10
2020,04,25,05,27,10.10
2020,04,25,05,28,10.10
2020,04,25,05,29,10.20
2020,04,25,05,30,10.10
2020,04,25,05,31,10.10
2020,04,25,05,32,10.20
2020,04,25,05,33,10.10
2020,04,25,05,34,10.10
2020,04,25,05,35,10.20
2020,04,25,05,36,10.20
2020,04,25,05,37,10.20
2020,04,25,05,38,10.20
2020,04,25,05,39,10.20
2020,04,25,05,40,10.20
2020,04,25,05,41,10.10
2020,04,25,05,42,10.10
2020,04,25,05,43,10.10
2020,04,25,05,44,10.10
2020,04,25,05,45,10.10
2020,04,25,05,46,10.10
2020,04,25,05,47,10.10
2020,04,25,05,48,10.10
2020,04,25,05,49,10.10
2020,04,25,05,50,10.10
2020,04,25,05,51,10.10
2020,04,25,05,52,10.10
2020,04,25,05,53,10.10
2020,04,25,05,54,10.10
2020,04,25,05,55,10.10
2020,04,25,05,56,10.10
2020,04,25,05,57,10.10
2020,04,25,05,58,10.10
2020,04,25,05,59,10.10
2020,04,25,06,00,10.10
2020,04,25,06,01,10.10
2020,04,25,06,02,10.10
2020,04,25,06,03,10.10
2020,04,25,06,04,10.10
2020,04,25,06,05,10.10
2020,04,25,06,06,10.10
2020,04,25,06,07,10.10
2020,04,25,06,08,10.10
2020,04,25,06,09,10.10
2020,04,25,06,10,10.20
2020,04,25,06,11,10.20
2020,04,25,06,12,10.20
2020,04,25,06,13,10.20
2020,04,25,06,14,10.20
2020,04,25,06,15,10.20
2020,04,25,06,16,10.20
2020,04,25,06,17,10.20
2020,04,25,06,18,10.20
2020,04,25,06,19,10.20
2020,04,25,06,20,10.20
2020,04,25,06,21,10.10
2020,04,25,06,22,10.10
2020,04,25,06,23,10.10
2020,04,25,06,24,10.10
2020,04,25,06,25,10.10
2020,04,25,06,26,10.10
2020,04,25,06,27,10.10
2020,04,25,06,28,10.10
2020,04,25,06,29,10.10
2020,04,25,06,30,10.00
2020,04,25,06,31,10.00
2020,04,25,06,32,10.00
2020,04,25,06,33,10.00
2020,04,25,06,34,10.00
2020,04,25,06,35,10.00
2020,04,25,06,36,10.10
2020,04,25,06,37,10.10
2020,04,25,06,38,10.10
2020,04,25,06,39,10.10
2020,04,25,06,40,10.10
2020,04,25,06,41,10.10
2020,04,25,06,42,10.10
2020,04,25,06,43,10.10
2020,04,25,06,44,10.10
2020,04,25,06,45,10.10
2020,04,25,06,46,10.10
2020,04,25,06,47,10.10
2020,04,25,06,48,10.10
2020,04,25,06,49,10.10
2020,04,25,06,50,10.10
2020,04,25,06,51,10.10
2020,04,25,06,52,10.10
2020,04,25,06,53,10.10
2020,04,25,06,54,10.10
2020,04,25,06,55,10.10
2020,04,25,06,56,10.10
2020,04,25,06,57,10.10
2020,04,25,06,58,10.10
2020,04,25,06,59,10.10
2020,04,25,07,00,10.10
2020,04,25,07,01,10.10
2020,04,25,07,02,10.10
2020,04,25,07,03,10.10
2020,04,25,07,04,10.20
2020,04,25,07,05,10.20
2020,04,25,07,06,10.20
2020,04,25,07,07,10.20
2020,04,25,07,08,10.20
2020,04,25,07,09,10.20
2020,04,25,07,10,10.10
2020,04,25,07,11,10.10
2020,04,25,07,12,10.10
2020,04,25,07,13,10.10
2020,04,25,07,14,10.10
2020,04,25,07,15,10.10
2020,04,25,07,16,10.10
2020,04,25,07,17,10.10
2020,04,25,07,18,10.10
2020,04,25,07,19,10.10
2020,04,25,07,20,10.10
2020,04,25,07,21,10.10
2020,04,25,07,22,10.10
2020,04,25,07,23,10.10
2020,04,25,07,24,10.10
2020,04,25,07,25,10.10
2020,04,25,07,26,10.10
2020,04,25,07,27,10.10
2020,04,25,07,28,10.10
2020,04,25,07,29,10.20
2020,04,25,07,30,10.20
2020,04,25,07,31,10.10
2020,04,25,07,32,10.20
2020,04,25,07,33,10.20
2020,04,25,07,34,10.20
2020,04,25,07,35,10.20
2020,04,25,07,36,10.20
2020,04,25,07,37,10.20
2020,04,25,07,38,10.20
2020,04,25,07,39,10.20
2020,04,25,07,40,10.20
2020,04,25,07,41,10.20
2020,04,25,07,42,10.20
2020,04,25,07,43,10.20
2020,04,25,07,44,10.20
2020,04,25,07,45,10.20
2020,04,25,07,46,10.20
2020,04,25,07,47,10.20
2020,04,25,07,48,10.20
2020,04,25,07,49,10.20
2020,04,25,07,50,10.20
2020,04,25,07,51,10.20
2020,04,25,07,52,10.20
2020,04,25,07,53,10.20
2020,04,25,07,54,10.20
2020,04,25,07,55,10.20
2020,04,25,07,56,10.20
2020,04,25,07,57,10.20
2020,04,25,07,58,10.20
2020,04,25,07,59,10.20
2020,04,25,08,00,10.20
2020,04,25,08,01,10.20
2020,04,25,08,02,10.20
2020,04,25,08,03,10.20
2020,04,25,08,04,10.20
2020,04,25,08,05,10.20
2020,04,25,08,06,10.20
2020,04,25,08,07,10.20
2020,04,25,08,08,10.20
2020,04,25,08,09,10.20
2020,04,25,08,10,10.20
2020,04,25,08,11,10.20
2020,04,25,08,12,10.20
2020,04,25,08,13,10.20
2020,04,25,08,14,10.20
2020,04,25,08,15,10.20
2020,04,25,08,16,10.20
2020,04,25,08,17,10.20
2020,04,25,08,18,10.20
2020,04,25,08,19,10.20
2020,04,25,08,20,10.20
2020,04,25,08,21,10.20
2020,04,25,08,22,10.20
2020,04,25,08,23,10.20
2020,04,25,08,24,10.20
2020,04,25,08,25,10.20
2020,04,25,08,26,10.20
2020,04,25,08,27,10.20
2020,04,25,08,28,10.20
2020,04,25,08,29,10.30
2020,04,25,08,30,10.30
2020,04,25,08,31,10.30
2020,04,25,08,32,10.30
2020,04,25,08,33,10.30
2020,04,25,08,34,10.30
2020,04,25,08,35,10.30
2020,04,25,08,36,10.30
2020,04,25,08,37,10.40
2020,04,25,08,38,10.40
2020,04,25,08,39,10.40
2020,04,25,08,40,10.40
2020,04,25,08,41,10.40
2020,04,25,08,42,10.40
2020,04,25,08,43,10.40
2020,04,25,08,44,10.40
2020,04,25,08,45,10.40
2020,04,25,08,46,10.40
2020,04,25,08,47,10.40
2020,04,25,08,48,10.50
2020,04,25,08,49,10.50
2020,04,25,08,50,10.50
2020,04,25,08,51,10.50
2020,04,25,08,52,10.50
2020,04,25,08,53,10.50
2020,04,25,08,54,10.60
2020,04,25,08,55,10.60
2020,04,25,08,56,10.60
2020,04,25,08,57,10.60
2020,04,25,08,58,10.70
2020,04,25,08,59,10.70
2020,04,25,09,00,10.70
2020,04,25,09,01,10.70
2020,04,25,09,02,10.70
2020,04,25,09,03,10.70
2020,04,25,09,04,10.80
2020,04,25,09,05,10.80
2020,04,25,09,06,10.80
2020,04,25,09,07,10.80
2020,04,25,09,08,10.90
2020,04,25,09,09,10.90
2020,04,25,09,10,10.90
2020,04,25,09,11,11.00
2020,04,25,09,12,11.00
2020,04,25,09,13,11.00
2020,04,25,09,14,11.00
2020,04,25,09,15,11.00
2020,04,25,09,16,11.00
2020,04,25,09,17,11.00
2020,04,25,09,18,11.00
2020,04,25,09,19,11.00
2020,04,25,09,20,11.00
2020,04,25,09,21,11.10
2020,04,25,09,22,11.10
2020,04,25,09,23,11.10
2020,04,25,09,24,11.10
2020,04,25,09,25,11.20
2020,04,25,09,26,11.20
2020,04,25,09,27,11.20
2020,04,25,09,28,11.30
2020,04,25,09,29,11.30
2020,04,25,09,30,11.30
2020,04,25,09,31,11.30
2020,04,25,09,32,11.30
2020,04,25,09,33,11.40
2020,04,25,09,34,11.40
2020,04,25,09,35,11.40
2020,04,25,09,36,11.40
2020,04,25,09,37,11.40
2020,04,25,09,38,11.50
2020,04,25,09,39,11.50
2020,04,25,09,40,11.60
2020,04,25,09,41,11.60
2020,04,25,09,42,11.60
2020,04,25,09,43,11.60
2020,04,25,09,44,11.60
2020,04,25,09,45,11.60
2020,04,25,09,46,11.60
2020,04,25,09,47,11.60
2020,04,25,09,48,11.60
2020,04,25,09,49,11.60
2020,04,25,09,50,11.60
2020,04,25,09,51,11.60
2020,04,25,09,52,11.60
2020,04,25,09,53,11.60
2020,04,25,09,54,11.60
2020,04,25,09,55,11.60
2020,04,25,09,56,11.60
2020,04,25,09,57,11.60
2020,04,25,09,58,11.60
2020,04,25,09,59,11.60
2020,04,25,10,00,11.60
2020,04,25,10,01,11.60
2020,04,25,10,02,11.60
2020,04,25,10,03,11.60
2020,04,25,10,04,11.60
2020,04,25,10,05,11.60
2020,04,25,10,06,11.60
2020,04,25,10,07,11.60
2020,04,25,10,08,11.60
2020,04,25,10,09,11.70
2020,04,25,10,10,11.80
2020,04,25,10,11,11.80
2020,04,25,10,12,11.80
2020,04,25,10,13,11.70
2020,04,25,10,14,11.80
2020,04,25,10,15,11.80
2020,04,25,10,16,11.80
2020,04,25,10,17,11.80
2020,04,25,10,18,11.80
2020,04,25,10,19,11.80
2020,04,25,10,20,11.80
2020,04,25,10,21,11.80
2020,04,25,10,22,11.80
2020,04,25,10,23,11.90
2020,04,25,10,24,11.90
2020,04,25,10,25,11.90
2020,04,25,10,26,11.90
2020,04,25,10,27,11.90
2020,04,25,10,28,11.90
2020,04,25,10,29,12.00
2020,04,25,10,30,12.00
2020,04,25,10,31,12.00
2020,04,25,10,32,11.90
2020,04,25,10,33,11.90
2020,04,25,10,34,11.80
2020,04,25,10,35,11.80
2020,04,25,10,36,11.80
2020,04,25,10,37,11.80
2020,04,25,10,38,11.70
2020,04,25,10,39,11.70
2020,04,25,10,40,11.60
2020,04,25,10,41,11.50
2020,04,25,10,42,11.50
2020,04,25,10,43,11.50
2020,04,25,10,44,11.50
2020,04,25,10,45,11.60
2020,04,25,10,46,11.60
2020,04,25,10,47,11.60
2020,04,25,10,48,11.60
2020,04,25,10,49,11.60
2020,04,25,10,50,11.60
2020,04,25,10,51,11.60
2020,04,25,10,52,11.60
2020,04,25,10,53,11.70
2020,04,25,10,54,11.70
2020,04,25,10,55,11.70
2020,04,25,10,56,11.70
2020,04,25,10,57,11.70
2020,04,25,10,58,11.80
2020,04,25,10,59,11.80
2020,04,25,11,00,11.80
2020,04,25,11,01,11.80
2020,04,25,11,02,11.80
2020,04,25,11,03,11.80
2020,04,25,11,04,11.80
2020,04,25,11,05,11.80
2020,04,25,11,06,11.90
2020,04,25,11,07,11.90
2020,04,25,11,08,12.00
2020,04,25,11,09,12.10
2020,04,25,11,10,12.10
2020,04,25,11,11,12.20
2020,04,25,11,12,12.40
2020,04,25,11,13,12.40
2020,04,25,11,14,12.50
2020,04,25,11,15,12.60
2020,04,25,11,16,12.60
2020,04,25,11,17,12.70
2020,04,25,11,18,12.90
2020,04,25,11,19,12.90
2020,04,25,11,20,13.00
2020,04,25,11,21,13.00
2020,04,25,11,22,13.20
2020,04,25,11,23,13.20
2020,04,25,11,24,13.30
2020,04,25,11,25,13.40
2020,04,25,11,26,13.50
2020,04,25,11,27,13.60
2020,04,25,11,28,13.60
2020,04,25,11,29,13.60
2020,04,25,11,30,13.70
2020,04,25,11,31,13.70
2020,04,25,11,32,13.70
2020,04,25,11,33,13.70
2020,04,25,11,34,13.80
2020,04,25,11,35,13.90
2020,04,25,11,36,13.90
2020,04,25,11,37,14.00
2020,04,25,11,38,14.00
2020,04,25,11,39,14.10
2020,04,25,11,40,14.10
2020,04,25,11,41,14.10
2020,04,25,11,42,14.10
2020,04,25,11,43,14.10
2020,04,25,11,44,14.20
2020,04,25,11,45,14.20
2020,04,25,11,46,14.20
2020,04,25,11,47,14.20
2020,04,25,11,48,14.30
2020,04,25,11,49,14.30
2020,04,25,11,50,14.30
2020,04,25,11,51,14.30
2020,04,25,11,52,14.30
2020,04,25,11,53,14.40
2020,04,25,11,54,14.40
2020,04,25,11,55,14.30
2020,04,25,11,56,14.30
2020,04,25,11,57,14.30
2020,04,25,11,58,14.30
2020,04,25,11,59,14.20
2020,04,25,12,00,14.20
2020,04,25,12,01,14.30
2020,04,25,12,02,14.30
2020,04,25,12,03,14.40
2020,04,25,12,04,14.50
2020,04,25,12,05,14.50
2020,04,25,12,06,14.60
2020,04,25,12,07,14.50
2020,04,25,12,08,14.40
2020,04,25,12,09,14.30
2020,04,25,12,10,14.30
2020,04,25,12,11,14.30
2020,04,25,12,12,14.30
2020,04,25,12,13,14.40
2020,04,25,12,14,14.40
2020,04,25,12,15,14.40
2020,04,25,12,16,14.30
2020,04,25,12,17,14.30
2020,04,25,12,18,14.30
2020,04,25,12,19,14.30
2020,04,25,12,20,14.30
2020,04,25,12,21,14.40
2020,04,25,12,22,14.30
2020,04,25,12,23,14.40
2020,04,25,12,24,14.40
2020,04,25,12,25,14.40
2020,04,25,12,26,14.40
2020,04,25,12,27,14.40
2020,04,25,12,28,14.40
2020,04,25,12,29,14.40
2020,04,25,12,30,14.40
2020,04,25,12,31,14.40
2020,04,25,12,32,14.50
2020,04,25,12,33,14.50
2020,04,25,12,34,14.50
2020,04,25,12,35,14.50
2020,04,25,12,36,14.50
2020,04,25,12,37,14.50
2020,04,25,12,38,14.40
2020,04,25,12,39,14.40
2020,04,25,12,40,14.50
2020,04,25,12,41,14.50
2020,04,25,12,42,14.60
2020,04,25,12,43,14.60
2020,04,25,12,44,14.60
2020,04,25,12,45,14.60
2020,04,25,12,46,14.70
2020,04,25,12,47,14.60
2020,04,25,12,48,14.60
2020,04,25,12,49,14.60
2020,04,25,12,50,14.60
2020,04,25,12,51,14.70
2020,04,25,12,52,14.60
2020,04,25,12,53,14.60
2020,04,25,12,54,14.60
2020,04,25,12,55,14.70
2020,04,25,12,56,14.70
2020,04,25,12,57,14.70
2020,04,25,12,58,14.70
2020,04,25,12,59,14.80
2020,04,25,13,00,14.80
2020,04,25,13,01,14.80
2020,04,25,13,02,14.80
2020,04,25,13,03,14.80
2020,04,25,13,04,14.80
2020,04,25,13,05,14.80
2020,04,25,13,06,14.80
2020,04,25,13,07,14.90
2020,04,25,13,08,15.00
2020,04,25,13,09,15.00
2020,04,25,13,10,15.10
2020,04,25,13,11,15.00
2020,04,25,13,12,14.80
2020,04,25,13,13,14.80
2020,04,25,13,14,14.70
2020,04,25,13,15,14.80
2020,04,25,13,16,14.80
2020,04,25,13,17,14.80
2020,04,25,13,18,14.80
2020,04,25,13,19,14.70
2020,04,25,13,20,14.70
2020,04,25,13,21,14.70
2020,04,25,13,22,14.70
2020,04,25,13,23,14.70
2020,04,25,13,24,14.80
2020,04,25,13,25,14.90
2020,04,25,13,26,14.90
2020,04,25,13,27,14.90
2020,04,25,13,28,14.90
2020,04,25,13,29,14.90
2020,04,25,13,30,14.80
2020,04,25,13,31,14.80
2020,04,25,13,32,14.80
2020,04,25,13,33,14.80
2020,04,25,13,34,14.80
2020,04,25,13,35,14.80
2020,04,25,13,36,14.80
2020,04,25,13,37,14.80
2020,04,25,13,38,14.80
2020,04,25,13,39,14.80
2020,04,25,13,40,14.80
2020,04,25,13,41,14.90
2020,04,25,13,42,14.90
2020,04,25,13,43,14.90
2020,04,25,13,44,14.90
2020,04,25,13,45,14.90
2020,04,25,13,46,14.90
2020,04,25,13,47,14.80
2020,04,25,13,48,14.80
2020,04,25,13,49,14.70
2020,04,25,13,50,14.70
2020,04,25,13,51,14.70
2020,04,25,13,52,14.70
2020,04,25,13,53,14.70
2020,04,25,13,54,14.70
2020,04,25,13,55,14.80
2020,04,25,13,56,14.90
2020,04,25,13,57,14.90
2020,04,25,13,58,14.90
2020,04,25,13,59,15.00
2020,04,25,14,00,15.00
2020,04,25,14,01,15.10
2020,04,25,14,02,14.90
2020,04,25,14,03,14.90
2020,04,25,14,04,14.90
2020,04,25,14,05,15.00
2020,04,25,14,06,15.00
2020,04,25,14,07,14.90
2020,04,25,14,08,14.90
2020,04,25,14,09,14.90
2020,04,25,14,10,14.90
2020,04,25,14,11,14.90
2020,04,25,14,12,14.80
2020,04,25,14,13,14.70
2020,04,25,14,14,14.60
2020,04,25,14,15,14.60
2020,04,25,14,16,14.60
2020,04,25,14,17,14.60
2020,04,25,14,18,14.60
2020,04,25,14,19,14.60
2020,04,25,14,20,14.60
2020,04,25,14,21,14.60
2020,04,25,14,22,14.70
2020,04,25,14,23,14.70
2020,04,25,14,24,14.70
2020,04,25,14,25,14.70
2020,04,25,14,26,14.80
2020,04,25,14,27,14.80
2020,04,25,14,28,14.90
2020,04,25,14,29,14.80
2020,04,25,14,30,14.80
2020,04,25,14,31,14.70
2020,04,25,14,32,14.60
2020,04,25,14,33,14.60
2020,04,25,14,34,14.60
2020,04,25,14,35,14.60
2020,04,25,14,36,14.70
2020,04,25,14,37,14.70
2020,04,25,14,38,14.70
2020,04,25,14,39,14.70
2020,04,25,14,40,14.70
2020,04,25,14,41,14.70
2020,04,25,14,42,14.70
2020,04,25,14,43,14.70
2020,04,25,14,44,14.60
2020,04,25,14,45,14.60
2020,04,25,14,46,14.60
2020,04,25,14,47,14.50
2020,04,25,14,48,14.50
2020,04,25,14,49,14.50
2020,04,25,14,50,14.30
2020,04,25,14,51,14.30
2020,04,25,14,52,14.20
2020,04,25,14,53,14.10
2020,04,25,14,54,14.10
2020,04,25,14,55,14.10
2020,04,25,14,56,14.10
2020,04,25,14,57,14.10
2020,04,25,14,58,14.20
2020,04,25,14,59,14.20
2020,04,25,15,00,14.30
2020,04,25,15,01,14.30
2020,04,25,15,02,14.30
2020,04,25,15,03,14.40
2020,04,25,15,04,14.40
2020,04,25,15,05,14.40
2020,04,25,15,06,14.50
2020,04,25,15,07,14.40
2020,04,25,15,08,14.40
2020,04,25,15,09,14.30
2020,04,25,15,10,14.30
2020,04,25,15,11,14.30
2020,04,25,15,12,14.40
2020,04,25,15,13,14.30
2020,04,25,15,14,14.30
2020,04,25,15,15,14.20
2020,04,25,15,16,14.30
2020,04,25,15,17,14.30
2020,04,25,15,18,14.30
2020,04,25,15,19,14.40
2020,04,25,15,20,14.50
2020,04,25,15,21,14.50
2020,04,25,15,22,14.60
2020,04,25,15,23,14.60
2020,04,25,15,24,14.60
2020,04,25,15,25,14.60
2020,04,25,15,26,14.70
2020,04,25,15,27,14.80
2020,04,25,15,28,15.00
2020,04,25,15,29,15.20
2020,04,25,15,30,15.40
2020,04,25,15,31,15.40
2020,04,25,15,32,15.40
2020,04,25,15,33,15.30
2020,04,25,15,34,15.20
2020,04,25,15,35,15.10
2020,04,25,15,36,15.10
2020,04,25,15,37,15.00
2020,04,25,15,38,14.90
2020,04,25,15,39,14.80
2020,04,25,15,40,14.60
2020,04,25,15,41,14.60
2020,04,25,15,42,14.70
2020,04,25,15,43,14.70
2020,04,25,15,44,14.80
2020,04,25,15,45,14.80
2020,04,25,15,46,14.90
2020,04,25,15,47,14.90
2020,04,25,15,48,14.90
2020,04,25,15,49,15.00
2020,04,25,15,50,14.90
2020,04,25,15,51,14.80
2020,04,25,15,52,14.80
2020,04,25,15,53,14.80
2020,04,25,15,54,14.70
2020,04,25,15,55,14.70
2020,04,25,15,56,14.70
2020,04,25,15,57,14.70
2020,04,25,15,58,14.70
2020,04,25,15,59,14.80
2020,04,25,16,00,14.70
2020,04,25,16,01,14.60
2020,04,25,16,02,14.50
2020,04,25,16,03,14.30
2020,04,25,16,04,14.20
2020,04,25,16,05,14.10
2020,04,25,16,06,14.00
2020,04,25,16,07,14.00
2020,04,25,16,08,14.00
2020,04,25,16,09,14.00
2020,04,25,16,10,14.00
2020,04,25,16,11,14.00
2020,04,25,16,12,14.10
2020,04,25,16,13,14.10
2020,04,25,16,14,14.00
2020,04,25,16,15,14.00
2020,04,25,16,16,14.00
2020,04,25,16,17,14.00
2020,04,25,16,18,13.90
2020,04,25,16,19,13.90
2020,04,25,16,20,13.90
2020,04,25,16,21,14.00
2020,04,25,16,22,14.00
2020,04,25,16,23,14.00
2020,04,25,16,24,14.00
2020,04,25,16,25,14.10
2020,04,25,16,26,14.10
2020,04,25,16,27,14.10
2020,04,25,16,28,14.10
2020,04,25,16,29,14.10
2020,04,25,16,30,14.20
2020,04,25,16,31,14.20
2020,04,25,16,32,14.20
2020,04,25,16,33,14.20
2020,04,25,16,34,14.20
2020,04,25,16,35,14.30
2020,04,25,16,36,14.30
2020,04,25,16,37,14.30
2020,04,25,16,38,14.30
2020,04,25,16,39,14.30
2020,04,25,16,40,14.40
2020,04,25,16,41,14.30
2020,04,25,16,42,14.30
2020,04,25,16,43,14.20
2020,04,25,16,44,14.20
2020,04,25,16,45,14.10
2020,04,25,16,46,14.10
2020,04,25,16,47,14.10
2020,04,25,16,48,14.20
2020,04,25,16,49,14.20
2020,04,25,16,50,14.20
2020,04,25,16,51,14.10
2020,04,25,16,52,14.20
2020,04,25,16,53,14.10
2020,04,25,16,54,14.10
2020,04,25,16,55,14.10
2020,04,25,16,56,14.00
2020,04,25,16,57,14.00
2020,04,25,16,58,14.10
2020,04,25,16,59,14.10
2020,04,25,17,00,14.20
2020,04,25,17,01,14.30
2020,04,25,17,02,14.30
2020,04,25,17,03,14.30
2020,04,25,17,04,14.30
2020,04,25,17,05,14.40
2020,04,25,17,06,14.40
2020,04,25,17,07,14.40
2020,04,25,17,08,14.50
2020,04,25,17,09,14.50
2020,04,25,17,10,14.60
2020,04,25,17,11,14.60
2020,04,25,17,12,14.60
2020,04,25,17,13,14.70
2020,04,25,17,14,14.80
2020,04,25,17,15,14.80
2020,04,25,17,16,14.80
2020,04,25,17,17,14.70
2020,04,25,17,18,14.70
2020,04,25,17,19,14.60
2020,04,25,17,20,14.60
2020,04,25,17,21,14.60
2020,04,25,17,22,14.60
2020,04,25,17,23,14.60
2020,04,25,17,24,14.60